Regional Weather Roundup
Issued by NWS

Home | Current Version | Previous Version | Graphics & Text | Print | Product List | Glossary On
Versions: 1 2 3 4 5 6 7 8 9 10 11 12 13 14 15 16 17 18 19 20 21 22 23 24 25 26 27 28 29 30 31 32 33 34 35 36 37 38 39 40 41 42 43 44 45 46 47 48 49 50
000
ASUS45 KTFX 211504
RWRMT
MONTANA HOURLY WEATHER ROUNDUP
NATIONAL WEATHER SERVICE GREAT FALLS MT
904 AM MDT SUN SEP 21 2014

NOTE: "FAIR" INDICATES FEW OR NO CLOUDS BELOW 12000 FEET WITH NO
SIGNIFICANT WEATHER AND/OR OBSTRUCTIONS TO VISIBILITY.

* THESE STATIONS ARE NOT UNDER NWS QUALITY CONTROL. THEY DO NOT
   REPORT WEATHER SUCH AS PRECIPITATION OR FOG.

MTZ001>007-043-211600-
WEST OF THE DIVIDE
CITY           SKY/WX    TMP DP  RH WIND       PRES   REMARKS
KALISPELL      SUNNY     57  46  67 NW3       30.16S
MISSOULA       SUNNY     48  41  77 S5        30.19R
BUTTE          SUNNY     45  37  74 CALM      30.30R
MULLAN PASS    SUNNY     55  36  49 SE14G24   30.22S
* ESSEX        N/A       47  39  74 S13G18     N/A
* LINCOLN      N/A       34  32  92 N/A        N/A
* LOOKOUT PASS N/A       47  39  74 N/A        N/A
* POLSON       N/A       50  43  77 N/A        N/A
* RONAN APT    SUNNY     46  43  89 N/A        N/A
* SEELEY LAKE  N/A       34  32  92 N/A        N/A
* THOMP F APT  SUNNY     51  36  57 NE3G9      N/A
$$

MTZ008-052>055-211600-
SOUTHWEST MONTANA
CITY           SKY/WX    TMP DP  RH WIND       PRES   REMARKS
BOZEMAN        SUNNY     52  43  72 CALM      30.28S
DILLON         SUNNY     48  37  66 SW5       30.28S
W YELLOWSTONE  PTCLDY    41  37  86 CALM      30.37S
* THREE FORKS  SUNNY     45  27  49 N/A        N/A
* BOULDER HILL N/A       51  37  59 S4         N/A
* MONIDA PASS  N/A       45  37  74 W7         N/A
* RAYNOLDS PAS N/A       43  29  58 N/A        N/A
* WHITEHALL    N/A       43  38  83 SW3        N/A
* WISE RIVER   N/A       36  29  76 SW4        N/A
$$

MTZ009>010-012-014-046-048-049-054-211600-
EAST SLOPES AND CENTRAL MONTANA
CITY           SKY/WX    TMP DP  RH WIND       PRES   REMARKS
CUT BANK       SUNNY     48  39  71 CALM      30.24S
GREAT FALLS    SUNNY     54  45  72 CALM      30.23F
HELENA         SUNNY     54  43  67 NE6       30.25S
MALMSTROM AFB  SUNNY     50  43  77 N2        30.25F
* CONRAD       SUNNY     45  45 100 N/A        N/A
* EAST GLACIER N/A       49  40  71 N4         N/A
* MONARCH      N/A       45  35  68 SW2        N/A
* PENDROY      N/A       56  47  72 S2         N/A
* ROGERS PASS  N/A       54  40  59 N/A        N/A
* SAINT MARY   N/A       34  33  96 SE3        N/A
* SWEET GRASS  N/A       52  37  57 S13        N/A
$$

MTZ011-013-016-021-035-040-045-047-050-051-211600-
NORTH CENTRAL MONTANA
CITY           SKY/WX    TMP DP  RH WIND       PRES   REMARKS
HAVRE          SUNNY     46  41  83 CALM      30.25S
LEWISTOWN      SUNNY     54  43  67 E8        30.28S
* CHESTER      N/A       48  40  74 N/A        N/A
* DENTON       N/A       58  42  55 SE6        N/A
* GEYSER       N/A       54  44  69 SW3        N/A
* JUDITH GAP   N/A       52  47  83 S6         N/A
* LOMA         N/A       47  41  80 SW1        N/A
$$

MTZ017>020-022>027-061-062-211600-
NORTHEAST MONTANA
CITY           SKY/WX    TMP DP  RH WIND       PRES   REMARKS
GLASGOW        SUNNY     52  39  61 CALM      30.29R
JORDAN         SUNNY     50  43  77 CALM      30.30S
SIDNEY         SUNNY     48  41  77 S6        30.33S
WOLF POINT     SUNNY     48  39  71 CALM      30.31S
* BEAVER HILL  N/A       54  38  55 S2         N/A
* CIRCLE       N/A       49  44  83 N/A        N/A
* LINDSAY DVD  N/A       61  37  41 S4         N/A
$$

MTZ028>042-056>058-211600-
SOUTHCENTRAL AND SOUTHEAST MONTANA
CITY           SKY/WX    TMP DP  RH WIND       PRES   REMARKS
BAKER          SUNNY     54  39  57 CALM      30.34S
BILLINGS       SUNNY     52  43  72 SW6       30.29S
LIVINGSTON     SUNNY     46  39  77 N5        30.31S
MILES CITY     SUNNY     52  39  61 SE6       30.31F
* LAUREL APT   SUNNY     50  39  66 N/A        N/A
* ROUNDUP APT  SUNNY     46  41  83 N/A        N/A
* ALZADA       N/A       50  41  71 SE1        N/A
* HYSHAM       N/A       62  38  41 E6         N/A
* LAME DEER    N/A       58  36  44 SE11       N/A
* REED POINT   N/A       47  42  83 W6         N/A
* ROSCOE HILL  N/A       57  35  44 SW1        N/A
$$

REGIONAL REPORTS...DAKOTAS
CITY           SKY/WX    TMP DP  RH WIND       PRES   REMARKS
WILLISTON      SUNNY     50  39  66 S5        30.30R
DICKINSON      SUNNY     57  41  55 W8        30.30R
BEACH          N/A       55  43  64 W3        30.33R
CROSBY         SUNNY     54  45  72 S5        30.29R
TIOGA          SUNNY     52  45  77 W3        30.32R
WATFORD CITY   SUNNY     52  37  57 SW5       30.29R
BISMARCK       SUNNY     57  43  60 NW5       30.29R
GRAND FORKS    CLOUDY    54  52  93 NW13      30.20R
FARGO          CLOUDY    55  50  83 N13       30.20R
BUFFALO SD     SUNNY     55  37  51 W3        30.28R
RAPID CITY     SUNNY     61  39  44 CALM      30.36R
$$

REGIONAL REPORTS...WYOMING/IDAHO/WASHINGTON
CITY           SKY/WX    TMP DP  RH WIND       PRES   REMARKS
GILLETTE       SUNNY     55  43  64 CALM      30.35S
SHERIDAN       SUNNY     50  43  77 CALM      30.32R
CODY           SUNNY    N/A N/A N/A N/A        N/A
YELLOWSTONE LA PTCLDY    46  43  89 CALM      30.43S
SALMON         PTCLDY    48  43  83 CALM      30.20S
MULLAN PASS    SUNNY     55  36  49 SE14G24   30.22S
SAND POINT     SUNNY     59  46  62 NE8       30.07S
SPOKANE        SUNNY     61  45  56 NE9       30.02S

$$




USA.gov is the U.S. government's official web portal to all federal, state and local government web resources and services.